Marietta, GA

1:51 PM EDT on June 26, 2017 (GMT -0400)
Dobbins Air Force Base

Weather History for KMGE - August, 2013

Change the Weather History Date:

Sunday, August 25, 2013

  Actual Average Record
Temperature  
Mean Temperature 74 °F -  
Max Temperature 81 °F 84 °F 96 °F (2007)
Min Temperature 66 °F 68 °F 60 °F (1997)
Cooling Degree Days 8    
Growing Degree Days 24 (Base 50)    
Moisture  
Dew Point 63 °F    
Average Humidity 70    
Maximum Humidity 89    
Minimum Humidity 51    
Precipitation  
Precipitation 0.00 in - - ()
Sea Level Pressure  
Sea Level Pressure 30.30 in    
Wind  
Wind Speed 5 mph (ENE)    
Max Wind Speed 10 mph    
Max Gust Speed -    
Visibility 10 miles    
Events      
Averages and records for this station are not official NWS values.
T = Trace of Precipitation, MM = Missing Value Source: NWS Daily Summary

Daily Weather History Graph

Daily Weather History Graph

Search for Another Location

Airport or City:

Trip Planner

Search our weather history database for the weather conditions in past years. The results will help you decide how hot, cold, wet, or windy it might be!

Date:

Astronomy

Aug. 25, 2013 Rise Set
Actual Time 7:07 AM EDT 8:12 PM EDT
Civil Twilight 6:41 AM EDT 8:38 PM EDT
Nautical Twilight 6:10 AM EDT 9:08 PM EDT
Astronomical Twilight 5:38 AM EDT 9:40 PM EDT
Moon 11:00 PM EDT (8/25) 11:51 AM EDT (8/25)
Length of Visible Light 13h 57m
Length of Day
13h 05m
Waning Gibbous, 76% of the Moon is Illuminated
Aug 25
Waning Gibbous
Aug 28
Last Quarter
Sep 5
New
Sep 12
First Quarter
Sep 19
Full

Hourly Weather History & Observations

Time (EDT) Temp. Heat Index Dew Point Humidity Pressure Visibility Wind Dir Wind Speed Gust Speed Precip Events Conditions
12:58 AM 70.3 °F - 66.7 °F 88% 30.26 in 10.0 mi East 3.5 mph - N/A   Overcast
1:58 AM 70.9 °F - 67.3 °F 88% 30.27 in 10.0 mi ENE 2.3 mph - N/A   Mostly Cloudy
2:58 AM 70.7 °F - 67.5 °F 89% 30.27 in 10.0 mi Variable 4.6 mph - N/A   Overcast
3:58 AM 70.9 °F - 64.0 °F 79% 30.28 in 10.0 mi East 4.6 mph - N/A   Overcast
4:58 AM 69.6 °F - 62.4 °F 78% 30.28 in 10.0 mi East 5.8 mph - N/A   Scattered Clouds
5:58 AM 67.8 °F - 62.2 °F 82% 30.29 in 10.0 mi Variable 3.5 mph - N/A   Clear
6:58 AM 66.2 °F - 62.4 °F 88% 30.30 in 10.0 mi Variable 2.3 mph - N/A   Mostly Cloudy
7:58 AM 66.4 °F - 61.9 °F 85% 30.32 in 10.0 mi East 5.8 mph - N/A   Partly Cloudy
8:58 AM 69.6 °F - 62.6 °F 78% 30.34 in 10.0 mi East 5.8 mph - N/A   Partly Cloudy
9:58 AM 73.0 °F - 63.3 °F 71% 30.35 in 10.0 mi East 10.4 mph - N/A   Partly Cloudy
10:58 AM 75.2 °F - 63.0 °F 66% 30.37 in 10.0 mi East 9.2 mph - N/A   Mostly Cloudy
11:58 AM 77.7 °F - 61.5 °F 57% 30.36 in 10.0 mi Variable 5.8 mph - N/A   Mostly Cloudy
12:58 PM 79.3 °F - 62.4 °F 56% 30.33 in 10.0 mi Variable 6.9 mph - N/A   Scattered Clouds
1:58 PM 80.1 °F 81.2 °F 61.9 °F 54% 30.31 in 10.0 mi East 5.8 mph - N/A   Scattered Clouds
2:58 PM 80.4 °F 81.5 °F 61.9 °F 53% 30.29 in 10.0 mi NE 6.9 mph - N/A   Mostly Cloudy
3:58 PM 80.4 °F 81.6 °F 62.6 °F 54% 30.27 in 10.0 mi NNE 6.9 mph - N/A   Mostly Cloudy
4:58 PM 81.0 °F 81.9 °F 61.9 °F 52% 30.26 in 10.0 mi Variable 4.6 mph - N/A   Scattered Clouds
5:58 PM 80.4 °F 81.3 °F 60.6 °F 51% 30.25 in 10.0 mi Variable 5.8 mph - N/A   Scattered Clouds
6:58 PM 78.8 °F - 61.0 °F 54% 30.27 in 10.0 mi Variable 5.8 mph - N/A   Scattered Clouds
7:58 PM 75.7 °F - 61.0 °F 60% 30.28 in 10.0 mi Variable 2.3 mph - N/A   Scattered Clouds
8:58 PM 70.5 °F - 61.7 °F 74% 30.30 in 10.0 mi Variable 3.5 mph - N/A   Scattered Clouds
9:58 PM 69.4 °F - 61.3 °F 75% 30.30 in 10.0 mi East 3.5 mph - N/A   Scattered Clouds
10:58 PM 69.3 °F - 61.0 °F 75% 30.32 in 10.0 mi ENE 2.3 mph - N/A   Scattered Clouds
11:58 PM 67.1 °F - 61.5 °F 82% 30.31 in 10.0 mi NE 2.3 mph - N/A   Clear